Location: Betra
(48.4113°N, 8.6634°E)
Time: 18:53:32
(UTC+00:00)

Resurs 1-4 Rocket - Pass Details

Date: 07 August 2024
Orbit: 798 x 813 km, 98.7° (Epoch: 06 September)

Event Time Altitude Azimuth Distance (km) Brightness Sun altitude
Rises 02:08:30 0° 10° (N) 3,348 6.4 -16.4°
Reaches altitude 10° 02:10:54 10° 6° (N) 2,411 5.4 -16.2°
Maximum altitude 02:16:03 52° 292° (WNW) 1,008 2.5 -15.6°
Enters shadow 02:19:05 24° 226° (SW) 1,634 3.1 -15.3°
